M I D A S
Marine Information and Data Acquisition System
Tripno 28 of the Zeeleeuw from 2001-06-14 08:55:00 to 2001-06-15 16:10:00
Back to CruiseResearch ActivitiesStationsMapUnderway DataData graphs

EquipmentUnitsComment
TimeDGPSUTC
LatitudeDGPSDM.mWGS84
LongitudeDGPSDM.mWGS84
TemperatureSBE03/SBE38deg celciusITS90
ConductivitySBE21S/mITS90
SalinitySBE21 Practical Salinity Units
ChlorophylAChelsea fluorimeterg/lCalibrated in Aceton
Missing or incorrect values are displayed as -999
Sea surface data collected by the RV Zeeleeuw from 2001-06-14 08:55:00 to 2001-06-15 16:10:00
                                                                                    Next 1000 lines
Time Latitude Longitude Temperature Conductivity Salinity ChlorophylA
2001-06-14 08:55:07 51°24.738 3°28.894 -999 -999 -999  
2001-06-14 08:55:12 51°24.741 3°28.916 -999 -999 -999  
2001-06-14 08:55:17 51°24.745 3°28.938 -999 -999 -999  
2001-06-14 08:55:22 51°24.748 3°28.961 -999 -999 -999  
2001-06-14 08:55:27 51°24.75 3°28.983 -999 -999 -999  
2001-06-14 08:55:32 51°24.753 3°29.005 -999 -999 -999  
2001-06-14 08:55:37 51°24.756 3°29.027 -999 -999 -999  
2001-06-14 08:55:42 51°24.759 3°29.05 -999 -999 -999  
2001-06-14 08:55:47 51°24.761 3°29.072 -999 -999 -999  
2001-06-14 08:55:52 51°24.764 3°29.094 -999 -999 -999  
2001-06-14 08:55:57 51°24.766 3°29.117 -999 -999 -999  
2001-06-14 08:56:02 51°24.769 3°29.139 -999 -999 -999  
2001-06-14 08:56:07 51°24.771 3°29.161 -999 -999 -999  
2001-06-14 08:56:12 51°24.773 3°29.184 -999 -999 -999  
2001-06-14 08:56:17 51°24.776 3°29.206 -999 -999 -999  
2001-06-14 08:56:22 51°24.779 3°29.228 -999 -999 -999  
2001-06-14 08:56:27 51°24.781 3°29.251 -999 -999 -999  
2001-06-14 08:56:32 51°24.784 3°29.273 -999 -999 -999  
2001-06-14 08:56:37 51°24.786 3°29.296 -999 -999 -999  
2001-06-14 08:56:42 51°24.788 3°29.319 -999 -999 -999  
2001-06-14 08:56:47 51°24.791 3°29.342 -999 -999 -999  
2001-06-14 08:56:52 51°24.793 3°29.364 -999 -999 -999  
2001-06-14 08:56:57 51°24.795 3°29.387 -999 -999 -999  
2001-06-14 08:57:01 51°24.797 3°29.406 -999 -999 -999  
2001-06-14 08:57:06 51°24.799 3°29.428 -999 -999 -999  
2001-06-14 08:57:12 51°24.803 3°29.456 -999 -999 -999  
2001-06-14 08:57:17 51°24.806 3°29.478 -999 -999 -999  
2001-06-14 08:57:21 51°24.808 3°29.496 -999 -999 -999  
2001-06-14 08:57:26 51°24.811 3°29.519 -999 -999 -999  
2001-06-14 08:57:32 51°24.815 3°29.546 -999 -999 -999  
2001-06-14 08:57:36 51°24.818 3°29.563 -999 -999 -999  
2001-06-14 08:57:41 51°24.821 3°29.586 -999 -999 -999  
2001-06-14 08:57:46 51°24.824 3°29.608 -999 -999 -999  
2001-06-14 08:57:52 51°24.828 3°29.635 -999 -999 -999  
2001-06-14 08:57:57 51°24.831 3°29.657 -999 -999 -999  
2001-06-14 08:58:02 51°24.834 3°29.679 -999 -999 -999  
2001-06-14 08:58:07 51°24.838 3°29.701 -999 -999 -999  
2001-06-14 08:58:12 51°24.841 3°29.723 -999 -999 -999  
2001-06-14 08:58:16 51°24.844 3°29.741 -999 -999 -999  
2001-06-14 08:58:22 51°24.848 3°29.767 -999 -999 -999  
2001-06-14 08:58:27 51°24.85 3°29.79 -999 -999 -999  
2001-06-14 08:58:32 51°24.853 3°29.812 -999 -999 -999  
2001-06-14 08:58:37 51°24.855 3°29.834 -999 -999 -999  
2001-06-14 08:58:42 51°24.857 3°29.857 -999 -999 -999  
2001-06-14 08:58:47 51°24.859 3°29.879 -999 -999 -999  
2001-06-14 08:58:52 51°24.862 3°29.901 -999 -999 -999  
2001-06-14 08:58:57 51°24.865 3°29.924 -999 -999 -999  
2001-06-14 08:59:02 51°24.868 3°29.946 -999 -999 -999  
2001-06-14 08:59:07 51°24.872 3°29.968 -999 -999 -999  
2001-06-14 08:59:13 51°24.876 3°29.994 -999 -999 -999  
2001-06-14 08:59:18 51°24.879 3°30.016 -999 -999 -999  
2001-06-14 08:59:23 51°24.883 3°30.038 -999 -999 -999  
2001-06-14 08:59:28 51°24.887 3°30.06 -999 -999 -999  
2001-06-14 08:59:33 51°24.89 3°30.082 -999 -999 -999  
2001-06-14 08:59:37 51°24.893 3°30.1 -999 -999 -999  
2001-06-14 08:59:43 51°24.897 3°30.127 -999 -999 -999  
2001-06-14 08:59:48 51°24.9 3°30.149 -999 -999 -999  
2001-06-14 08:59:53 51°24.903 3°30.171 -999 -999 -999  
2001-06-14 08:59:58 51°24.906 3°30.193 -999 -999 -999  
2001-06-14 09:00:02 51°24.908 3°30.211 -999 -999 -999  
2001-06-14 09:00:07 51°24.911 3°30.234 -999 -999 -999  
2001-06-14 09:00:12 51°24.914 3°30.256 -999 -999 -999  
2001-06-14 09:00:17 51°24.916 3°30.279 -999 -999 -999  
2001-06-14 09:00:22 51°24.918 3°30.301 -999 -999 -999  
2001-06-14 09:00:28 51°24.92 3°30.328 -999 -999 -999  
2001-06-14 09:00:33 51°24.922 3°30.351 -999 -999 -999  
2001-06-14 09:00:37 51°24.923 3°30.369 -999 -999 -999  
2001-06-14 09:00:42 51°24.925 3°30.392 -999 -999 -999  
2001-06-14 09:00:48 51°24.927 3°30.42 -999 -999 -999  
2001-06-14 09:00:53 51°24.929 3°30.443 -999 -999 -999  
2001-06-14 09:00:58 51°24.931 3°30.466 -999 -999 -999  
2001-06-14 09:01:03 51°24.933 3°30.489 -999 -999 -999  
2001-06-14 09:01:07 51°24.935 3°30.507 -999 -999 -999  
2001-06-14 09:01:13 51°24.937 3°30.535 -999 -999 -999  
2001-06-14 09:01:17 51°24.939 3°30.554 -999 -999 -999  
2001-06-14 09:01:23 51°24.941 3°30.581 -999 -999 -999  
2001-06-14 09:01:27 51°24.943 3°30.599 -999 -999 -999  
2001-06-14 09:01:33 51°24.946 3°30.627 -999 -999 -999  
2001-06-14 09:01:38 51°24.948 3°30.649 -999 -999 -999  
2001-06-14 09:01:42 51°24.95 3°30.667 -999 -999 -999  
2001-06-14 09:01:47 51°24.953 3°30.69 -999 -999 -999  
2001-06-14 09:01:53 51°24.956 3°30.717 -999 -999 -999  
2001-06-14 09:01:58 51°24.96 3°30.739 -999 -999 -999  
2001-06-14 09:02:02 51°24.963 3°30.757 -999 -999 -999  
2001-06-14 09:02:08 51°24.967 3°30.784 -999 -999 -999  
2001-06-14 09:02:13 51°24.971 3°30.806 -999 -999 -999  
2001-06-14 09:02:18 51°24.974 3°30.828 -999 -999 -999  
2001-06-14 09:02:22 51°24.976 3°30.846 -999 -999 -999  
2001-06-14 09:02:28 51°24.978 3°30.873 -999 -999 -999  
2001-06-14 09:02:33 51°24.98 3°30.895 -999 -999 -999  
2001-06-14 09:02:38 51°24.982 3°30.918 -999 -999 -999  
2001-06-14 09:02:43 51°24.984 3°30.941 -999 -999 -999  
2001-06-14 09:02:48 51°24.986 3°30.963 -999 -999 -999  
2001-06-14 09:02:53 51°24.989 3°30.986 -999 -999 -999  
2001-06-14 09:02:57 51°24.991 3°31.004 -999 -999 -999  
2001-06-14 09:03:03 51°24.993 3°31.032 -999 -999 -999  
2001-06-14 09:03:07 51°24.995 3°31.05 -999 -999 -999  
2001-06-14 09:03:13 51°24.998 3°31.077 -999 -999 -999  
2001-06-14 09:03:18 51°25.001 3°31.099 -999 -999 -999  
2001-06-14 09:03:23 51°25.003 3°31.122 -999 -999 -999  
2001-06-14 09:03:27 51°25.006 3°31.14 -999 -999 -999  
2001-06-14 09:03:32 51°25.01 3°31.162 -999 -999 -999  
2001-06-14 09:03:38 51°25.015 3°31.189 -999 -999 -999  
2001-06-14 09:03:43 51°25.018 3°31.211 -999 -999 -999  
2001-06-14 09:03:48 51°25.022 3°31.233 -999 -999 -999  
2001-06-14 09:03:53 51°25.025 3°31.255 -999 -999 -999  
2001-06-14 09:03:58 51°25.027 3°31.278 -999 -999 -999  
2001-06-14 09:04:03 51°25.029 3°31.3 -999 -999 -999  
2001-06-14 09:04:07 51°25.03 3°31.318 -999 -999 -999  
2001-06-14 09:04:13 51°25.032 3°31.346 -999 -999 -999  
2001-06-14 09:04:18 51°25.033 3°31.368 -999 -999 -999  
2001-06-14 09:04:23 51°25.035 3°31.391 -999 -999 -999  
2001-06-14 09:04:28 51°25.037 3°31.414 -999 -999 -999  
2001-06-14 09:04:33 51°25.038 3°31.437 -999 -999 -999  
2001-06-14 09:04:37 51°25.04 3°31.455 -999 -999 -999  
2001-06-14 09:04:42 51°25.042 3°31.478 -999 -999 -999  
2001-06-14 09:04:48 51°25.044 3°31.505 -999 -999 -999  
2001-06-14 09:04:53 51°25.046 3°31.528 -999 -999 -999  
2001-06-14 09:04:58 51°25.047 3°31.551 -999 -999 -999  
2001-06-14 09:05:03 51°25.048 3°31.573 -999 -999 -999  
2001-06-14 09:05:08 51°25.049 3°31.596 -999 -999 -999  
2001-06-14 09:05:13 51°25.051 3°31.619 -999 -999 -999  
2001-06-14 09:05:17 51°25.053 3°31.637 -999 -999 -999  
2001-06-14 09:05:23 51°25.056 3°31.665 -999 -999 -999  
2001-06-14 09:05:27 51°25.058 3°31.683 -999 -999 -999  
2001-06-14 09:05:32 51°25.06 3°31.706 -999 -999 -999  
2001-06-14 09:05:37 51°25.062 3°31.728 -999 -999 -999  
2001-06-14 09:05:42 51°25.064 3°31.751 -999 -999 -999  
2001-06-14 09:05:47 51°25.066 3°31.774 -999 -999 -999  
2001-06-14 09:05:52 51°25.068 3°31.797 -999 -999 -999  
2001-06-14 09:05:57 51°25.07 3°31.819 -999 -999 -999  
2001-06-14 09:06:02 51°25.072 3°31.842 -999 -999 -999  
2001-06-14 09:06:07 51°25.074 3°31.865 -999 -999 -999  
2001-06-14 09:06:12 51°25.077 3°31.887 -999 -999 -999  
2001-06-14 09:06:17 51°25.079 3°31.91 -999 -999 -999  
2001-06-14 09:06:21 51°25.081 3°31.928 -999 -999 -999  
2001-06-14 09:06:26 51°25.083 3°31.951 -999 -999 -999  
2001-06-14 09:06:32 51°25.085 3°31.978 -999 -999 -999  
2001-06-14 09:06:37 51°25.088 3°32.001 -999 -999 -999  
2001-06-14 09:06:42 51°25.089 3°32.024 -999 -999 -999  
2001-06-14 09:06:47 51°25.091 3°32.047 -999 -999 -999  
2001-06-14 09:06:52 51°25.093 3°32.07 -999 -999 -999  
2001-06-14 09:06:57 51°25.095 3°32.093 -999 -999 -999  
2001-06-14 09:07:02 51°25.096 3°32.116 -999 -999 -999  
2001-06-14 09:07:07 51°25.098 3°32.139 -999 -999 -999  
2001-06-14 09:07:12 51°25.1 3°32.161 -999 -999 -999  
2001-06-14 09:07:17 51°25.102 3°32.184 -999 -999 -999  
2001-06-14 09:07:22 51°25.105 3°32.207 -999 -999 -999  
2001-06-14 09:07:27 51°25.107 3°32.23 -999 -999 -999  
2001-06-14 09:07:32 51°25.11 3°32.253 -999 -999 -999  
2001-06-14 09:07:37 51°25.112 3°32.275 -999 -999 -999  
2001-06-14 09:07:42 51°25.115 3°32.298 -999 -999 -999  
2001-06-14 09:07:47 51°25.118 3°32.321 -999 -999 -999  
2001-06-14 09:07:52 51°25.121 3°32.343 -999 -999 -999  
2001-06-14 09:07:57 51°25.124 3°32.366 -999 -999 -999  
2001-06-14 09:08:02 51°25.128 3°32.388 -999 -999 -999  
2001-06-14 09:08:07 51°25.131 3°32.411 -999 -999 -999  
2001-06-14 09:08:12 51°25.134 3°32.434 -999 -999 -999  
2001-06-14 09:08:17 51°25.138 3°32.456 -999 -999 -999  
2001-06-14 09:08:22 51°25.141 3°32.479 -999 -999 -999  
2001-06-14 09:08:27 51°25.144 3°32.501 -999 -999 -999  
2001-06-14 09:08:32 51°25.147 3°32.524 -999 -999 -999  
2001-06-14 09:08:37 51°25.15 3°32.546 -999 -999 -999  
2001-06-14 09:08:42 51°25.153 3°32.569 -999 -999 -999  
2001-06-14 09:08:47 51°25.156 3°32.592 -999 -999 -999  
2001-06-14 09:08:52 51°25.159 3°32.614 -999 -999 -999  
2001-06-14 09:08:57 51°25.162 3°32.637 -999 -999 -999  
2001-06-14 09:09:02 51°25.165 3°32.659 -999 -999 -999  
2001-06-14 09:09:07 51°25.168 3°32.681 -999 -999 -999  
2001-06-14 09:09:12 51°25.17 3°32.704 -999 -999 -999  
2001-06-14 09:09:16 51°25.171 3°32.721 -999 -999 -999  
2001-06-14 09:09:22 51°25.171 3°32.748 -999 -999 -999  
2001-06-14 09:09:26 51°25.17 3°32.765 -999 -999 -999  
2001-06-14 09:09:32 51°25.168 3°32.791 -999 -999 -999  
2001-06-14 09:09:37 51°25.165 3°32.813 -999 -999 -999  
2001-06-14 09:09:41 51°25.163 3°32.83 -999 -999 -999  
2001-06-14 09:09:47 51°25.159 3°32.856 -999 -999 -999  
2001-06-14 09:09:52 51°25.156 3°32.878 -999 -999 -999  
2001-06-14 09:09:57 51°25.153 3°32.9 -999 -999 -999  
2001-06-14 09:10:02 51°25.15 3°32.921 -999 -999 -999  
2001-06-14 09:10:07 51°25.146 3°32.943 -999 -999 -999  
2001-06-14 09:10:12 51°25.143 3°32.964 -999 -999 -999  
2001-06-14 09:10:17 51°25.139 3°32.986 -999 -999 -999  
2001-06-14 09:10:22 51°25.136 3°33.007 -999 -999 -999  
2001-06-14 09:10:27 51°25.134 3°33.029 -999 -999 -999  
2001-06-14 09:10:32 51°25.133 3°33.052 -999 -999 -999  
2001-06-14 09:10:36 51°25.132 3°33.07 -999 -999 -999  
2001-06-14 09:10:42 51°25.132 3°33.096 -999 -999 -999  
2001-06-14 09:10:47 51°25.132 3°33.119 -999 -999 -999  
2001-06-14 09:10:52 51°25.133 3°33.141 -999 -999 -999  
2001-06-14 09:10:57 51°25.134 3°33.163 -999 -999 -999  
2001-06-14 09:11:02 51°25.136 3°33.186 -999 -999 -999  
2001-06-14 09:11:06 51°25.137 3°33.204 -999 -999 -999  
2001-06-14 09:11:12 51°25.14 3°33.231 -999 -999 -999  
2001-06-14 09:11:17 51°25.142 3°33.253 -999 -999 -999  
2001-06-14 09:11:22 51°25.145 3°33.276 -999 -999 -999  
2001-06-14 09:11:27 51°25.148 3°33.298 -999 -999 -999  
2001-06-14 09:11:32 51°25.151 3°33.32 -999 -999 -999  
2001-06-14 09:11:36 51°25.155 3°33.337 -999 -999 -999  
2001-06-14 09:11:42 51°25.159 3°33.364 -999 -999 -999  
2001-06-14 09:11:46 51°25.162 3°33.381 -999 -999 -999  
2001-06-14 09:11:52 51°25.167 3°33.408 -999 -999 -999  
2001-06-14 09:11:57 51°25.171 3°33.429 -999 -999 -999  
2001-06-14 09:12:02 51°25.175 3°33.451 -999 -999 -999  
2001-06-14 09:12:07 51°25.178 3°33.473 -999 -999 -999  
2001-06-14 09:12:12 51°25.182 3°33.495 -999 -999 -999  
2001-06-14 09:12:17 51°25.187 3°33.517 -999 -999 -999  
2001-06-14 09:12:22 51°25.192 3°33.538 -999 -999 -999  
2001-06-14 09:12:27 51°25.197 3°33.56 -999 -999 -999  
2001-06-14 09:12:32 51°25.201 3°33.582 -999 -999 -999  
2001-06-14 09:12:37 51°25.205 3°33.603 -999 -999 -999  
2001-06-14 09:12:42 51°25.209 3°33.625 -999 -999 -999  
2001-06-14 09:12:47 51°25.213 3°33.647 -999 -999 -999  
2001-06-14 09:12:52 51°25.218 3°33.669 -999 -999 -999  
2001-06-14 09:12:57 51°25.222 3°33.691 -999 -999 -999  
2001-06-14 09:13:02 51°25.226 3°33.713 -999 -999 -999  
2001-06-14 09:13:07 51°25.23 3°33.735 -999 -999 -999  
2001-06-14 09:13:12 51°25.234 3°33.757 -999 -999 -999  
2001-06-14 09:13:16 51°25.237 3°33.774 -999 -999 -999  
2001-06-14 09:13:22 51°25.242 3°33.801 -999 -999 -999  
2001-06-14 09:13:26 51°25.246 3°33.819 -999 -999 -999  
2001-06-14 09:13:32 51°25.251 3°33.845 -999 -999 -999  
2001-06-14 09:13:36 51°25.254 3°33.863 -999 -999 -999  
2001-06-14 09:13:42 51°25.258 3°33.889 -999 -999 -999  
2001-06-14 09:13:46 51°25.261 3°33.907 -999 -999 -999  
2001-06-14 09:13:52 51°25.264 3°33.933 -999 -999 -999  
2001-06-14 09:13:56 51°25.266 3°33.951 -999 -999 -999  
2001-06-14 09:14:01 51°25.269 3°33.974 -999 -999 -999  
2001-06-14 09:14:06 51°25.272 3°33.996 -999 -999 -999  
2001-06-14 09:14:12 51°25.275 3°34.023 -999 -999 -999  
2001-06-14 09:14:17 51°25.279 3°34.045 -999 -999 -999  
2001-06-14 09:14:22 51°25.282 3°34.068 -999 -999 -999  
2001-06-14 09:14:27 51°25.286 3°34.09 -999 -999 -999  
2001-06-14 09:14:31 51°25.289 3°34.108 -999 -999 -999  
2001-06-14 09:14:36 51°25.292 3°34.13 -999 -999 -999  
2001-06-14 09:14:42 51°25.297 3°34.156 -999 -999 -999  
2001-06-14 09:14:47 51°25.301 3°34.179 -999 -999 -999  
2001-06-14 09:14:52 51°25.304 3°34.201 -999 -999 -999  
2001-06-14 09:14:56 51°25.307 3°34.219 -999 -999 -999  
2001-06-14 09:15:02 51°25.311 3°34.246 -999 -999 -999  
2001-06-14 09:15:06 51°25.314 3°34.264 -999 -999 -999  
2001-06-14 09:15:11 51°25.317 3°34.286 -999 -999 -999  
2001-06-14 09:15:16 51°25.321 3°34.308 -999 -999 -999  
2001-06-14 09:15:21 51°25.326 3°34.33 -999 -999 -999  
2001-06-14 09:15:26 51°25.33 3°34.352 -999 -999 -999  
2001-06-14 09:15:32 51°25.335 3°34.379 -999 -999 -999  
2001-06-14 09:15:37 51°25.339 3°34.402 -999 -999 -999  
2001-06-14 09:15:41 51°25.342 3°34.419 -999 -999 -999  
2001-06-14 09:15:46 51°25.346 3°34.442 -999 -999 -999  
2001-06-14 09:15:52 51°25.35 3°34.469 -999 -999 -999  
2001-06-14 09:15:57 51°25.354 3°34.491 -999 -999 -999  
2001-06-14 09:16:02 51°25.358 3°34.514 -999 -999 -999  
2001-06-14 09:16:07 51°25.363 3°34.536 -999 -999 -999  
2001-06-14 09:16:11 51°25.366 3°34.554 -999 -999 -999  
2001-06-14 09:16:16 51°25.369 3°34.576 -999 -999 -999  
2001-06-14 09:16:22 51°25.373 3°34.603 -999 -999 -999  
2001-06-14 09:16:26 51°25.376 3°34.621 -999 -999 -999  
2001-06-14 09:16:32 51°25.38 3°34.648 -999 -999 -999  
2001-06-14 09:16:36 51°25.383 3°34.666 -999 -999 -999  
2001-06-14 09:16:42 51°25.387 3°34.693 -999 -999 -999  
2001-06-14 09:16:46 51°25.39 3°34.711 -999 -999 -999  
2001-06-14 09:16:51 51°25.394 3°34.734 -999 -999 -999  
2001-06-14 09:16:56 51°25.398 3°34.756 -999 -999 -999  
2001-06-14 09:17:02 51°25.402 3°34.783 -999 -999 -999  
2001-06-14 09:17:06 51°25.406 3°34.801 -999 -999 -999  
2001-06-14 09:17:12 51°25.41 3°34.827 -999 -999 -999  
2001-06-14 09:17:17 51°25.414 3°34.85 -999 -999 -999  
2001-06-14 09:17:21 51°25.417 3°34.868 -999 -999 -999  
2001-06-14 09:17:26 51°25.421 3°34.89 -999 -999 -999  
2001-06-14 09:17:32 51°25.425 3°34.917 -999 -999 -999  
2001-06-14 09:17:37 51°25.429 3°34.94 -999 -999 -999  
2001-06-14 09:17:42 51°25.433 3°34.962 -999 -999 -999  
2001-06-14 09:17:46 51°25.437 3°34.98 -999 -999 -999  
2001-06-14 09:17:52 51°25.442 3°35.006 -999 -999 -999  
2001-06-14 09:17:56 51°25.446 3°35.024 -999 -999 -999  
2001-06-14 09:18:01 51°25.45 3°35.047 -999 -999 -999  
2001-06-14 09:18:06 51°25.454 3°35.069 -999 -999 -999  
2001-06-14 09:18:11 51°25.458 3°35.091 -999 -999 -999  
2001-06-14 09:18:16 51°25.462 3°35.114 -999 -999 -999  
2001-06-14 09:18:22 51°25.467 3°35.14 -999 -999 -999  
2001-06-14 09:18:27 51°25.47 3°35.163 -999 -999 -999  
2001-06-14 09:18:32 51°25.474 3°35.185 -999 -999 -999  
2001-06-14 09:18:36 51°25.477 3°35.202 -999 -999 -999  
2001-06-14 09:18:42 51°25.481 3°35.229 -999 -999 -999  
2001-06-14 09:18:46 51°25.485 3°35.246 -999 -999 -999  
2001-06-14 09:18:52 51°25.49 3°35.271 -999 -999 -999  
2001-06-14 09:18:57 51°25.495 3°35.292 -999 -999 -999  
2001-06-14 09:19:02 51°25.5 3°35.313 -999 -999 -999  
2001-06-14 09:19:06 51°25.505 3°35.33 -999 -999 -999  
2001-06-14 09:19:12 51°25.511 3°35.354 -999 -999 -999  
2001-06-14 09:19:16 51°25.515 3°35.371 -999 -999 -999  
2001-06-14 09:19:22 51°25.521 3°35.396 -999 -999 -999  
2001-06-14 09:19:26 51°25.525 3°35.412 -999 -999 -999  
2001-06-14 09:19:32 51°25.531 3°35.437 -999 -999 -999  
2001-06-14 09:19:37 51°25.537 3°35.458 -999 -999 -999  
2001-06-14 09:19:41 51°25.541 3°35.474 -999 -999 -999  
2001-06-14 09:19:46 51°25.546 3°35.495 -999 -999 -999  
2001-06-14 09:19:51 51°25.551 3°35.515 -999 -999 -999  
2001-06-14 09:19:56 51°25.556 3°35.536 -999 -999 -999  
2001-06-14 09:20:02 51°25.562 3°35.561 -999 -999 -999  
2001-06-14 09:20:07 51°25.567 3°35.581 -999 -999 -999  
2001-06-14 09:20:12 51°25.572 3°35.602 -999 -999 -999  
2001-06-14 09:20:16 51°25.576 3°35.618 -999 -999 -999  
2001-06-14 09:20:22 51°25.582 3°35.643 -999 -999 -999  
2001-06-14 09:20:27 51°25.587 3°35.664 -999 -999 -999  
2001-06-14 09:20:32 51°25.592 3°35.684 -999 -999 -999  
2001-06-14 09:20:36 51°25.596 3°35.7 -999 -999 -999  
2001-06-14 09:20:42 51°25.602 3°35.725 -999 -999 -999  
2001-06-14 09:20:46 51°25.606 3°35.741 -999 -999 -999  
2001-06-14 09:20:51 51°25.612 3°35.761 -999 -999 -999  
2001-06-14 09:20:56 51°25.617 3°35.782 -999 -999 -999  
2001-06-14 09:21:01 51°25.622 3°35.802 -999 -999 -999  
2001-06-14 09:21:06 51°25.627 3°35.823 -999 -999 -999  
2001-06-14 09:21:12 51°25.633 3°35.848 -999 -999 -999  
2001-06-14 09:21:17 51°25.638 3°35.868 -999 -999 -999  
2001-06-14 09:21:22 51°25.643 3°35.889 -999 -999 -999  
2001-06-14 09:21:26 51°25.648 3°35.905 -999 -999 -999  
2001-06-14 09:21:32 51°25.654 3°35.93 -999 -999 -999  
2001-06-14 09:21:36 51°25.657 3°35.946 -999 -999 -999  
2001-06-14 09:21:42 51°25.663 3°35.971 -999 -999 -999  
2001-06-14 09:21:47 51°25.667 3°35.993 -999 -999 -999  
2001-06-14 09:21:52 51°25.671 3°36.014 -999 -999 -999  
2001-06-14 09:21:56 51°25.674 3°36.031 -999 -999 -999  
2001-06-14 09:22:02 51°25.679 3°36.056 -999 -999 -999  
2001-06-14 09:22:06 51°25.682 3°36.073 -999 -999 -999  
2001-06-14 09:22:11 51°25.686 3°36.094 -999 -999 -999  
2001-06-14 09:22:16 51°25.691 3°36.115 -999 -999 -999  
2001-06-14 09:22:22 51°25.697 3°36.141 -999 -999 -999  
2001-06-14 09:22:26 51°25.7 3°36.157 -999 -999 -999  
2001-06-14 09:22:32 51°25.706 3°36.182 -999 -999 -999  
2001-06-14 09:22:36 51°25.71 3°36.199 -999 -999 -999  
2001-06-14 09:22:41 51°25.714 3°36.22 -999 -999 -999  
2001-06-14 09:22:46 51°25.719 3°36.24 -999 -999 -999  
2001-06-14 09:22:52 51°25.725 3°36.265 -999 -999 -999  
2001-06-14 09:22:57 51°25.73 3°36.285 -999 -999 -999  
2001-06-14 09:23:02 51°25.735 3°36.306 -999 -999 -999  
2001-06-14 09:23:07 51°25.739 3°36.327 -999 -999 -999  
2001-06-14 09:23:12 51°25.743 3°36.348 -999 -999 -999  
2001-06-14 09:23:17 51°25.748 3°36.369 -999 -999 -999  
2001-06-14 09:23:22 51°25.753 3°36.39 -999 -999 -999  
2001-06-14 09:23:26 51°25.756 3°36.407 -999 -999 -999  
2001-06-14 09:23:32 51°25.761 3°36.432 -999 -999 -999  
2001-06-14 09:23:36 51°25.765 3°36.449 -999 -999 -999  
2001-06-14 09:23:42 51°25.771 3°36.473 -999 -999 -999  
2001-06-14 09:23:46 51°25.775 3°36.49 -999 -999 -999  
2001-06-14 09:23:51 51°25.78 3°36.511 -999 -999 -999  
2001-06-14 09:23:56 51°25.784 3°36.531 -999 -999 -999  
2001-06-14 09:24:02 51°25.79 3°36.556 -999 -999 -999  
2001-06-14 09:24:07 51°25.795 3°36.577 -999 -999 -999  
2001-06-14 09:24:12 51°25.8 3°36.597 -999 -999 -999  
2001-06-14 09:24:17 51°25.805 3°36.618 -999 -999 -999  
2001-06-14 09:24:21 51°25.809 3°36.634 -999 -999 -999  
2001-06-14 09:24:26 51°25.813 3°36.655 -999 -999 -999  
2001-06-14 09:24:32 51°25.819 3°36.68 -999 -999 -999  
2001-06-14 09:24:37 51°25.824 3°36.7 -999 -999 -999  
2001-06-14 09:24:42 51°25.829 3°36.721 -999 -999 -999  
2001-06-14 09:24:46 51°25.832 3°36.737 -999 -999 -999  
2001-06-14 09:24:52 51°25.838 3°36.762 -999 -999 -999  
2001-06-14 09:24:56 51°25.842 3°36.778 -999 -999 -999  
2001-06-14 09:25:01 51°25.847 3°36.799 -999 -999 -999  
2001-06-14 09:25:06 51°25.851 3°36.82 -999 -999 -999  
2001-06-14 09:25:11 51°25.856 3°36.84 -999 -999 -999  
2001-06-14 09:25:16 51°25.86 3°36.861 -999 -999 -999  
2001-06-14 09:25:22 51°25.865 3°36.885 -999 -999 -999  
2001-06-14 09:25:27 51°25.87 3°36.906 -999 -999 -999  
2001-06-14 09:25:31 51°25.873 3°36.923 -999 -999 -999  
2001-06-14 09:25:36 51°25.877 3°36.943 -999 -999 -999  
2001-06-14 09:25:42 51°25.883 3°36.968 -999 -999 -999  
2001-06-14 09:25:47 51°25.888 3°36.989 -999 -999 -999  
2001-06-14 09:25:52 51°25.892 3°37.009 -999 -999 -999  
2001-06-14 09:25:57 51°25.897 3°37.03 -999 -999 -999  
2001-06-14 09:26:02 51°25.902 3°37.05 -999 -999 -999  
2001-06-14 09:26:06 51°25.905 3°37.067 -999 -999 -999  
2001-06-14 09:26:12 51°25.911 3°37.091 -999 -999 -999  
2001-06-14 09:26:16 51°25.914 3°37.108 -999 -999 -999  
2001-06-14 09:26:22 51°25.92 3°37.132 -999 -999 -999  
2001-06-14 09:26:26 51°25.924 3°37.149 -999 -999 -999  
2001-06-14 09:26:32 51°25.929 3°37.173 -999 -999 -999  
2001-06-14 09:26:37 51°25.934 3°37.194 -999 -999 -999  
2001-06-14 09:26:41 51°25.938 3°37.21 -999 -999 -999  
2001-06-14 09:26:46 51°25.943 3°37.231 -999 -999 -999  
2001-06-14 09:26:52 51°25.948 3°37.255 -999 -999 -999  
2001-06-14 09:26:56 51°25.952 3°37.272 -999 -999 -999  
2001-06-14 09:27:02 51°25.958 3°37.297 -999 -999 -999  
2001-06-14 09:27:07 51°25.962 3°37.317 -999 -999 -999  
2001-06-14 09:27:11 51°25.965 3°37.334 -999 -999 -999  
2001-06-14 09:27:16 51°25.97 3°37.355 -999 -999 -999  
2001-06-14 09:27:22 51°25.975 3°37.38 -999 -999 -999  
2001-06-14 09:27:27 51°25.979 3°37.401 -999 -999 -999  
2001-06-14 09:27:32 51°25.983 3°37.422 -999 -999 -999  
2001-06-14 09:27:36 51°25.985 3°37.439 -999 -999 -999  
2001-06-14 09:27:42 51°25.989 3°37.464 -999 -999 -999  
2001-06-14 09:27:47 51°25.992 3°37.486 -999 -999 -999  
2001-06-14 09:27:51 51°25.995 3°37.503 -999 -999 -999  
2001-06-14 09:27:56 51°25.999 3°37.523 -999 -999 -999  
2001-06-14 09:28:01 51°26.004 3°37.544 -999 -999 -999  
2001-06-14 09:28:06 51°26.007 3°37.565 -999 -999 -999  
2001-06-14 09:28:12 51°26.011 3°37.591 -999 -999 -999  
2001-06-14 09:28:17 51°26.015 3°37.612 -999 -999 -999  
2001-06-14 09:28:22 51°26.018 3°37.633 -999 -999 -999  
2001-06-14 09:28:26 51°26.021 3°37.65 -999 -999 -999  
2001-06-14 09:28:32 51°26.025 3°37.675 -999 -999 -999  
2001-06-14 09:28:37 51°26.03 3°37.696 -999 -999 -999  
2001-06-14 09:28:42 51°26.034 3°37.717 -999 -999 -999  
2001-06-14 09:28:47 51°26.038 3°37.738 -999 -999 -999  
2001-06-14 09:28:52 51°26.042 3°37.759 -999 -999 -999  
2001-06-14 09:28:56 51°26.046 3°37.776 -999 -999 -999  
2001-06-14 09:29:02 51°26.05 3°37.801 -999 -999 -999  
2001-06-14 09:29:06 51°26.053 3°37.818 -999 -999 -999  
2001-06-14 09:29:12 51°26.058 3°37.844 -999 -999 -999  
2001-06-14 09:29:16 51°26.061 3°37.861 -999 -999 -999  
2001-06-14 09:29:22 51°26.066 3°37.886 -999 -999 -999  
2001-06-14 09:29:27 51°26.07 3°37.907 -999 -999 -999  
2001-06-14 09:29:32 51°26.075 3°37.929 -999 -999 -999  
2001-06-14 09:29:36 51°26.078 3°37.945 -999 -999 -999  
2001-06-14 09:29:41 51°26.082 3°37.967 -999 -999 -999  
2001-06-14 09:29:46 51°26.087 3°37.989 -999 -999 -999  
2001-06-14 09:29:52 51°26.093 3°38.014 -999 -999 -999  
2001-06-14 09:29:57 51°26.097 3°38.036 -999 -999 -999  
2001-06-14 09:30:02 51°26.101 3°38.057 -999 -999 -999  
2001-06-14 09:30:07 51°26.105 3°38.079 -999 -999 -999  
2001-06-14 09:30:12 51°26.11 3°38.1 -999 -999 -999  
2001-06-14 09:30:17 51°26.114 3°38.122 -999 -999 -999  
2001-06-14 09:30:22 51°26.118 3°38.143 -999 -999 -999  
2001-06-14 09:30:26 51°26.122 3°38.161 -999 -999 -999  
2001-06-14 09:30:32 51°26.128 3°38.187 -999 -999 -999  
2001-06-14 09:30:36 51°26.132 3°38.204 -999 -999 -999  
2001-06-14 09:30:42 51°26.138 3°38.23 -999 -999 -999  
2001-06-14 09:30:46 51°26.142 3°38.248 -999 -999 -999  
2001-06-14 09:30:51 51°26.148 3°38.27 -999 -999 -999  
2001-06-14 09:30:56 51°26.153 3°38.292 -999 -999 -999  
2001-06-14 09:31:02 51°26.16 3°38.318 -999 -999 -999  
2001-06-14 09:31:07 51°26.165 3°38.34 -999 -999 -999  
2001-06-14 09:31:12 51°26.171 3°38.362 -999 -999 -999  
2001-06-14 09:31:17 51°26.177 3°38.384 -999 -999 -999  
2001-06-14 09:31:22 51°26.182 3°38.406 -999 -999 -999  
2001-06-14 09:31:26 51°26.187 3°38.424 -999 -999 -999  
2001-06-14 09:31:32 51°26.194 3°38.45 -999 -999 -999  
2001-06-14 09:31:37 51°26.2 3°38.471 -999 -999 -999  
2001-06-14 09:31:42 51°26.206 3°38.493 -999 -999 -999  
2001-06-14 09:31:46 51°26.21 3°38.511 -999 -999 -999  
2001-06-14 09:31:52 51°26.217 3°38.536 -999 -999 -999  
2001-06-14 09:31:56 51°26.222 3°38.554 -999 -999 -999  
2001-06-14 09:32:02 51°26.229 3°38.579 -999 -999 -999  
2001-06-14 09:32:06 51°26.233 3°38.596 -999 -999 -999  
2001-06-14 09:32:12 51°26.24 3°38.621 -999 -999 -999  
2001-06-14 09:32:16 51°26.244 3°38.638 -999 -999 -999  
2001-06-14 09:32:22 51°26.249 3°38.663 -999 -999 -999  
2001-06-14 09:32:27 51°26.254 3°38.685 -999 -999 -999  
2001-06-14 09:32:31 51°26.258 3°38.702 -999 -999 -999  
2001-06-14 09:32:36 51°26.263 3°38.723 -999 -999 -999  
2001-06-14 09:32:42 51°26.268 3°38.748 -999 -999 -999  
2001-06-14 09:32:47 51°26.273 3°38.769 -999 -999 -999  
2001-06-14 09:32:52 51°26.278 3°38.79 -999 -999 -999  
2001-06-14 09:32:57 51°26.283 3°38.811 -999 -999 -999  
2001-06-14 09:33:02 51°26.287 3°38.832 -999 -999 -999  
2001-06-14 09:33:07 51°26.292 3°38.854 -999 -999 -999  
2001-06-14 09:33:12 51°26.296 3°38.875 -999 -999 -999  
2001-06-14 09:33:16 51°26.299 3°38.892 -999 -999 -999  
2001-06-14 09:33:22 51°26.304 3°38.918 -999 -999 -999  
2001-06-14 09:33:26 51°26.306 3°38.935 -999 -999 -999  
2001-06-14 09:33:32 51°26.309 3°38.961 -999 -999 -999  
2001-06-14 09:33:37 51°26.312 3°38.982 -999 -999 -999  
2001-06-14 09:33:41 51°26.314 3°39 -999 -999 -999  
2001-06-14 09:33:46 51°26.316 3°39.021 -999 -999 -999  
2001-06-14 09:33:52 51°26.318 3°39.047 -999 -999 -999  
2001-06-14 09:33:57 51°26.32 3°39.069 -999 -999 -999  
2001-06-14 09:34:02 51°26.321 3°39.091 -999 -999 -999  
2001-06-14 09:34:07 51°26.321 3°39.112 -999 -999 -999  
2001-06-14 09:34:12 51°26.319 3°39.133 -999 -999 -999  
2001-06-14 09:34:16 51°26.318 3°39.15 -999 -999 -999  
2001-06-14 09:34:22 51°26.316 3°39.175 -999 -999 -999  
2001-06-14 09:34:27 51°26.314 3°39.196 -999 -999 -999  
2001-06-14 09:34:32 51°26.312 3°39.217 -999 -999 -999  
2001-06-14 09:34:36 51°26.31 3°39.234 -999 -999 -999  
2001-06-14 09:34:42 51°26.308 3°39.259 -999 -999 -999  
2001-06-14 09:34:47 51°26.307 3°39.28 -999 -999 -999  
2001-06-14 09:34:51 51°26.305 3°39.297 -999 -999 -999  
2001-06-14 09:34:56 51°26.303 3°39.318 -999 -999 -999  
2001-06-14 09:35:02 51°26.301 3°39.343 -999 -999 -999  
2001-06-14 09:35:06 51°26.3 3°39.36 -999 -999 -999  
2001-06-14 09:35:12 51°26.297 3°39.386 -999 -999 -999  
2001-06-14 09:35:17 51°26.295 3°39.407 -999 -999 -999  
2001-06-14 09:35:21 51°26.293 3°39.424 -999 -999 -999  
2001-06-14 09:35:26 51°26.292 3°39.445 -999 -999 -999  
2001-06-14 09:35:32 51°26.29 3°39.471 -999 -999 -999  
2001-06-14 09:35:37 51°26.288 3°39.493 -999 -999 -999  
2001-06-14 09:35:42 51°26.286 3°39.514 -999 -999 -999  
2001-06-14 09:35:47 51°26.284 3°39.536 -999 -999 -999  
2001-06-14 09:35:52 51°26.281 3°39.557 -999 -999 -999  
2001-06-14 09:35:56 51°26.279 3°39.574 -999 -999 -999  
2001-06-14 09:36:02 51°26.275 3°39.599 -999 -999 -999  
2001-06-14 09:36:06 51°26.273 3°39.617 -999 -999 -999  
2001-06-14 09:36:12 51°26.27 3°39.642 -999 -999 -999  
2001-06-14 09:36:16 51°26.267 3°39.659 -999 -999 -999  
2001-06-14 09:36:22 51°26.263 3°39.684 -999 -999 -999  
2001-06-14 09:36:27 51°26.259 3°39.705 -999 -999 -999  
2001-06-14 09:36:31 51°26.256 3°39.722 -999 -999 -999  
2001-06-14 09:36:36 51°26.252 3°39.743 -999 -999 -999  
2001-06-14 09:36:42 51°26.247 3°39.767 -999 -999 -999  
2001-06-14 09:36:46 51°26.243 3°39.784 -999 -999 -999  
2001-06-14 09:36:52 51°26.237 3°39.808 -999 -999 -999  
2001-06-14 09:36:57 51°26.232 3°39.828 -999 -999 -999  
2001-06-14 09:37:02 51°26.227 3°39.848 -999 -999 -999  
2001-06-14 09:37:06 51°26.222 3°39.864 -999 -999 -999  
2001-06-14 09:37:12 51°26.216 3°39.888 -999 -999 -999  
2001-06-14 09:37:17 51°26.21 3°39.908 -999 -999 -999  
2001-06-14 09:37:22 51°26.205 3°39.927 -999 -999 -999  
2001-06-14 09:37:26 51°26.2 3°39.943 -999 -999 -999  
2001-06-14 09:37:32 51°26.193 3°39.965 -999 -999 -999  
2001-06-14 09:37:37 51°26.186 3°39.984 -999 -999 -999  
2001-06-14 09:37:41 51°26.181 3°39.999 -999 -999 -999  
2001-06-14 09:37:46 51°26.174 3°40.017 -999 -999 -999  
2001-06-14 09:37:51 51°26.167 3°40.036 -999 -999 -999  
2001-06-14 09:37:56 51°26.161 3°40.054 -999 -999 -999  
2001-06-14 09:38:02 51°26.152 3°40.076 -999 -999 -999  
2001-06-14 09:38:07 51°26.145 3°40.094 -999 -999 -999  
2001-06-14 09:38:12 51°26.138 3°40.112 -999 -999 -999  
2001-06-14 09:38:16 51°26.133 3°40.127 -999 -999 -999  
2001-06-14 09:38:22 51°26.124 3°40.149 -999 -999 -999  
2001-06-14 09:38:27 51°26.117 3°40.167 -999 -999 -999  
2001-06-14 09:38:32 51°26.109 3°40.185 -999 -999 -999  
2001-06-14 09:38:37 51°26.102 3°40.203 -999 -999 -999  
2001-06-14 09:38:42 51°26.095 3°40.222 -999 -999 -999  
2001-06-14 09:38:47 51°26.088 3°40.239 -999 -999 -999  
2001-06-14 09:38:52 51°26.08 3°40.257 -999 -999 -999  
2001-06-14 09:38:56 51°26.074 3°40.271 -999 -999 -999  
2001-06-14 09:39:02 51°26.065 3°40.292 -999 -999 -999  
2001-06-14 09:39:06 51°26.059 3°40.306 -999 -999 -999  
2001-06-14 09:39:12 51°26.049 3°40.327 -999 -999 -999  
2001-06-14 09:39:17 51°26.042 3°40.344 -999 -999 -999  
2001-06-14 09:39:22 51°26.034 3°40.362 -999 -999 -999  
2001-06-14 09:39:26 51°26.027 3°40.375 -999 -999 -999  
2001-06-14 09:39:31 51°26.019 3°40.392 -999 -999 -999  
2001-06-14 09:39:36 51°26.012 3°40.41 -999 -999 -999  
2001-06-14 09:39:42 51°26.002 3°40.43 -999 -999 -999  
2001-06-14 09:39:47 51°25.994 3°40.448 -999 -999 -999  
2001-06-14 09:39:52 51°25.987 3°40.465 -999 -999 -999  
2001-06-14 09:39:57 51°25.979 3°40.483 -999 -999 -999  
2001-06-14 09:40:02 51°25.971 3°40.5 -999 -999 -999  
2001-06-14 09:40:07 51°25.964 3°40.517 -999 -999 -999  
2001-06-14 09:40:12 51°25.956 3°40.534 -999 -999 -999  
2001-06-14 09:40:16 51°25.949 3°40.548 -999 -999 -999  
2001-06-14 09:40:22 51°25.939 3°40.568 -999 -999 -999  
2001-06-14 09:40:26 51°25.933 3°40.582 -999 -999 -999  
2001-06-14 09:40:32 51°25.923 3°40.602 -999 -999 -999  
2001-06-14 09:40:36 51°25.916 3°40.615 -999 -999 -999  
2001-06-14 09:40:41 51°25.908 3°40.631 -999 -999 -999  
2001-06-14 09:40:46 51°25.899 3°40.648 -999 -999 -999  
2001-06-14 09:40:52 51°25.889 3°40.667 -999 -999 -999  
2001-06-14 09:40:57 51°25.88 3°40.683 -999 -999 -999  
2001-06-14 09:41:02 51°25.871 3°40.699 -999 -999 -999  
2001-06-14 09:41:07 51°25.862 3°40.714 -999 -999 -999  
2001-06-14 09:41:12 51°25.853 3°40.73 -999 -999 -999  
2001-06-14 09:41:16 51°25.846 3°40.742 -999 -999 -999  
2001-06-14 09:41:22 51°25.835 3°40.761 -999 -999 -999  
2001-06-14 09:41:27 51°25.826 3°40.776 -999 -999 -999  
2001-06-14 09:41:32 51°25.817 3°40.791 -999 -999 -999  
2001-06-14 09:41:36 51°25.809 3°40.803 -999 -999 -999  
2001-06-14 09:41:42 51°25.798 3°40.821 -999 -999 -999  
2001-06-14 09:41:46 51°25.791 3°40.833 -999 -999 -999  
2001-06-14 09:41:51 51°25.782 3°40.848 -999 -999 -999  
2001-06-14 09:41:56 51°25.773 3°40.864 -999 -999 -999  
2001-06-14 09:42:02 51°25.762 3°40.882 -999 -999 -999  
2001-06-14 09:42:07 51°25.753 3°40.898 -999 -999 -999  
2001-06-14 09:42:12 51°25.745 3°40.914 -999 -999 -999  
2001-06-14 09:42:17 51°25.736 3°40.93 -999 -999 -999  
2001-06-14 09:42:21 51°25.729 3°40.942 -999 -999 -999  
2001-06-14 09:42:26 51°25.72 3°40.958 -999 -999 -999  
2001-06-14 09:42:32 51°25.709 3°40.976 -999 -999 -999  
2001-06-14 09:42:37 51°25.7 3°40.991 -999 -999 -999  
2001-06-14 09:42:42 51°25.691 3°41.006 -999 -999 -999  
2001-06-14 09:42:47 51°25.682 3°41.023 -999 -999 -999  
2001-06-14 09:42:52 51°25.674 3°41.039 -999 -999 -999  
2001-06-14 09:42:56 51°25.667 3°41.051 -999 -999 -999  
2001-06-14 09:43:02 51°25.656 3°41.07 -999 -999 -999  
2001-06-14 09:43:06 51°25.649 3°41.083 -999 -999 -999  
2001-06-14 09:43:12 51°25.638 3°41.102 -999 -999 -999  
2001-06-14 09:43:16 51°25.631 3°41.115 -999 -999 -999  
2001-06-14 09:43:22 51°25.621 3°41.134 -999 -999 -999  
2001-06-14 09:43:27 51°25.612 3°41.149 -999 -999 -999  
2001-06-14 09:43:31 51°25.605 3°41.162 -999 -999 -999  
2001-06-14 09:43:36 51°25.595 3°41.177 -999 -999 -999  
2001-06-14 09:43:42 51°25.584 3°41.195 -999 -999 -999  
2001-06-14 09:43:47 51°25.575 3°41.211 -999 -999 -999  
2001-06-14 09:43:52 51°25.566 3°41.226 -999 -999 -999  
2001-06-14 09:43:57 51°25.556 3°41.241 -999 -999 -999  
2001-06-14 09:44:02 51°25.547 3°41.256 -999 -999 -999  
2001-06-14 09:44:06 51°25.54 3°41.268 -999 -999 -999  
2001-06-14 09:44:12 51°25.528 3°41.286 -999 -999 -999  
2001-06-14 09:44:17 51°25.519 3°41.301 -999 -999 -999  
2001-06-14 09:44:22 51°25.51 3°41.317 -999 -999 -999  
2001-06-14 09:44:26 51°25.503 3°41.329 -999 -999 -999  
2001-06-14 09:44:32 51°25.492 3°41.347 -999 -999 -999  
2001-06-14 09:44:36 51°25.485 3°41.359 -999 -999 -999  
2001-06-14 09:44:41 51°25.476 3°41.374 -999 -999 -999  
2001-06-14 09:44:46 51°25.467 3°41.389 -999 -999 -999  
2001-06-14 09:44:52 51°25.456 3°41.407 -999 -999 -999  
2001-06-14 09:44:57 51°25.447 3°41.423 -999 -999 -999  
2001-06-14 09:45:02 51°25.437 3°41.438 -999 -999 -999  
2001-06-14 09:45:07 51°25.428 3°41.453 -999 -999 -999  
2001-06-14 09:45:12 51°25.419 3°41.468 -999 -999 -999  
2001-06-14 09:45:16 51°25.412 3°41.48 -999 -999 -999  
2001-06-14 09:45:22 51°25.401 3°41.499 -999 -999 -999  
2001-06-14 09:45:27 51°25.392 3°41.514 -999 -999 -999  
2001-06-14 09:45:32 51°25.383 3°41.529 -999 -999 -999  
2001-06-14 09:45:37 51°25.373 3°41.544 -999 -999 -999  
2001-06-14 09:45:42 51°25.364 3°41.559 -999 -999 -999  
2001-06-14 09:45:46 51°25.357 3°41.571 -999 -999 -999  
2001-06-14 09:45:52 51°25.345 3°41.589 -999 -999 -999  
2001-06-14 09:45:56 51°25.338 3°41.6 -999 -999 -999  
2001-06-14 09:46:01 51°25.328 3°41.615 -999 -999 -999  
2001-06-14 09:46:06 51°25.319 3°41.63 -999 -999 -999  
2001-06-14 09:46:12 51°25.308 3°41.648 -999 -999 -999  
2001-06-14 09:46:17 51°25.299 3°41.663 -999 -999 -999  
2001-06-14 09:46:22 51°25.289 3°41.678 -999 -999 -999  
2001-06-14 09:46:26 51°25.282 3°41.69 -999 -999 -999  
2001-06-14 09:46:32 51°25.27 3°41.707 -999 -999 -999  
2001-06-14 09:46:37 51°25.261 3°41.722 -999 -999 -999  
2001-06-14 09:46:42 51°25.252 3°41.737 -999 -999 -999  
2001-06-14 09:46:47 51°25.243 3°41.752 -999 -999 -999  
2001-06-14 09:46:52 51°25.233 3°41.767 -999 -999 -999  
2001-06-14 09:46:57 51°25.224 3°41.782 -999 -999 -999  
2001-06-14 09:47:02 51°25.214 3°41.797 -999 -999 -999  
2001-06-14 09:47:07 51°25.205 3°41.812 -999 -999 -999  
2001-06-14 09:47:12 51°25.195 3°41.826 -999 -999 -999  
2001-06-14 09:47:16 51°25.187 3°41.837 -999 -999 -999  
2001-06-14 09:47:22 51°25.175 3°41.854 -999 -999 -999  
2001-06-14 09:47:27 51°25.165 3°41.869 -999 -999 -999  
2001-06-14 09:47:32 51°25.155 3°41.883 -999 -999 -999  
2001-06-14 09:47:36 51°25.148 3°41.895 -999 -999 -999  
2001-06-14 09:47:41 51°25.138 3°41.91 -999 -999 -999  
2001-06-14 09:47:46 51°25.128 3°41.924 -999 -999 -999  
2001-06-14 09:47:52 51°25.116 3°41.941 -999 -999 -999  
2001-06-14 09:47:57 51°25.106 3°41.955 -999 -999 -999  
2001-06-14 09:48:02 51°25.095 3°41.969 -999 -999 -999  
2001-06-14 09:48:07 51°25.085 3°41.983 -999 -999 -999  
2001-06-14 09:48:12 51°25.075 3°41.997 -999 -999 -999  
2001-06-14 09:48:17 51°25.065 3°42.011 -999 -999 -999  
2001-06-14 09:48:22 51°25.054 3°42.026 -999 -999 -999  
2001-06-14 09:48:27 51°25.044 3°42.04 -999 -999 -999  
2001-06-14 09:48:32 51°25.034 3°42.055 -999 -999 -999  
2001-06-14 09:48:36 51°25.026 3°42.066 -999 -999 -999  
2001-06-14 09:48:42 51°25.013 3°42.083 -999 -999 -999  
2001-06-14 09:48:46 51°25.005 3°42.095 -999 -999 -999  
2001-06-14 09:48:51 51°24.995 3°42.109 -999 -999 -999  
2001-06-14 09:48:56 51°24.984 3°42.124 -999 -999 -999  
2001-06-14 09:49:02 51°24.972 3°42.141 -999 -999 -999  
2001-06-14 09:49:07 51°24.962 3°42.156 -999 -999 -999  
2001-06-14 09:49:12 51°24.952 3°42.171 -999 -999 -999  
2001-06-14 09:49:17 51°24.941 3°42.185 -999 -999 -999  
2001-06-14 09:49:22 51°24.93 3°42.199 -999 -999 -999  
2001-06-14 09:49:27 51°24.92 3°42.213 -999 -999 -999  
2001-06-14 09:49:32 51°24.909 3°42.227 -999 -999 -999  
2001-06-14 09:49:37 51°24.898 3°42.24 -999 -999 -999  
2001-06-14 09:49:42 51°24.886 3°42.251 -999 -999 -999  
2001-06-14 09:49:47 51°24.874 3°42.262 -999 -999 -999  
2001-06-14 09:49:52 51°24.861 3°42.271 -999 -999 -999  
2001-06-14 09:49:56 51°24.851 3°42.277 -999 -999 -999  
2001-06-14 09:50:02 51°24.835 3°42.286 -999 -999 -999  
2001-06-14 09:50:06 51°24.824 3°42.291 -999 -999 -999  
2001-06-14 09:50:12 51°24.808 3°42.298 -999 -999 -999  
2001-06-14 09:50:17 51°24.794 3°42.304 -999 -999 -999  
2001-06-14 09:50:22 51°24.781 3°42.309 -999 -999 -999  
2001-06-14 09:50:26 51°24.769 3°42.313 -999 -999 -999  
2001-06-14 09:50:31 51°24.756 3°42.318 -999 -999 -999  
2001-06-14 09:50:36 51°24.741 3°42.322 -999 -999 -999  
2001-06-14 09:50:42 51°24.724 3°42.328 -999 -999 -999  
2001-06-14 09:50:47 51°24.71 3°42.331 -999 -999 -999  
2001-06-14 09:50:52 51°24.696 3°42.335 -999 -999 -999  
2001-06-14 09:50:57 51°24.681 3°42.339 -999 -999 -999  
2001-06-14 09:51:02 51°24.667 3°42.342 -999 -999 -999  
2001-06-14 09:51:07 51°24.653 3°42.345 -999 -999 -999  
2001-06-14 09:51:12 51°24.639 3°42.347 -999 -999 -999  
2001-06-14 09:51:16 51°24.627 3°42.348 -999 -999 -999  
2001-06-14 09:51:22 51°24.61 3°42.35 -999 -999 -999  
2001-06-14 09:51:26 51°24.598 3°42.352 -999 -999 -999  
2001-06-14 09:51:32 51°24.581 3°42.356 -999 -999 -999  
2001-06-14 09:51:37 51°24.567 3°42.359 -999 -999 -999  
2001-06-14 09:51:41 51°24.556 3°42.362 -999 -999 -999  
2001-06-14 09:51:46 51°24.542 3°42.367 -999 -999 -999  
2001-06-14 09:51:52 51°24.525 3°42.374 -999 -999 -999  
2001-06-14 09:51:57 51°24.512 3°42.38 -999 -999 -999  
2001-06-14 09:52:02 51°24.498 3°42.385 -999 -999 -999  
2001-06-14 09:52:07 51°24.484 3°42.391 -999 -999 -999  
2001-06-14 09:52:12 51°24.47 3°42.397 -999 -999 -999  
2001-06-14 09:52:17 51°24.456 3°42.403 -999 -999 -999  
2001-06-14 09:52:22 51°24.441 3°42.408 -999 -999 -999  
2001-06-14 09:52:27 51°24.427 3°42.413 -999 -999 -999  
2001-06-14 09:52:32 51°24.412 3°42.419 -999 -999 -999  
2001-06-14 09:52:36 51°24.401 3°42.423 -999 -999 -999  
2001-06-14 09:52:42 51°24.384 3°42.429 -999 -999 -999  
2001-06-14 09:52:47 51°24.368 3°42.434 -999 -999 -999  
2001-06-14 09:52:52 51°24.353 3°42.438 -999 -999 -999  
2001-06-14 09:52:56 51°24.342 3°42.442 -999 -999 -999  
2001-06-14 09:53:02 51°24.324 3°42.447 -999 -999 -999  
2001-06-14 09:53:07 51°24.309 3°42.451 -999 -999 -999  
2001-06-14 09:53:12 51°24.295 3°42.455 -999 -999 -999  
2001-06-14 09:53:17 51°24.28 3°42.459 -999 -999 -999  
2001-06-14 09:53:21 51°24.268 3°42.462 -999 -999 -999  
2001-06-14 09:53:26 51°24.253 3°42.466 -999 -999 -999  
2001-06-14 09:53:32 51°24.236 3°42.47 -999 -999 -999  
2001-06-14 09:53:37 51°24.221 3°42.474 -999 -999 -999  
2001-06-14 09:53:42 51°24.206 3°42.476 -999 -999 -999  
2001-06-14 09:53:47 51°24.191 3°42.479 -999 -999 -999  
2001-06-14 09:53:52 51°24.176 3°42.481 -999 -999 -999  
2001-06-14 09:53:57 51°24.161 3°42.483 -999 -999 -999  
2001-06-14 09:54:02 51°24.146 3°42.484 -999 -999 -999  
2001-06-14 09:54:06 51°24.134 3°42.485 -999 -999 -999  
2001-06-14 09:54:12 51°24.116 3°42.486 -999 -999 -999  
2001-06-14 09:54:16 51°24.104 3°42.486 -999 -999 -999  
2001-06-14 09:54:22 51°24.087 3°42.486 -999 -999 -999  
2001-06-14 09:54:27 51°24.072 3°42.485 -999 -999 -999  
2001-06-14 09:54:31 51°24.06 3°42.484 -999 -999 -999  
2001-06-14 09:54:36 51°24.045 3°42.482 -999 -999 -999  
2001-06-14 09:54:42 51°24.028 3°42.479 -999 -999 -999  
2001-06-14 09:54:47 51°24.013 3°42.475 -999 -999 -999  
2001-06-14 09:54:52 51°23.998 3°42.472 -999 -999 -999  
2001-06-14 09:54:57 51°23.984 3°42.47 -999 -999 -999  
2001-06-14 09:55:02 51°23.969 3°42.467 -999 -999 -999  
2001-06-14 09:55:06 51°23.958 3°42.464 -999 -999 -999  
2001-06-14 09:55:12 51°23.941 3°42.461 -999 -999 -999  
2001-06-14 09:55:17 51°23.926 3°42.459 -999 -999 -999  
2001-06-14 09:55:22 51°23.912 3°42.457 -999 -999 -999  
2001-06-14 09:55:27 51°23.898 3°42.455 -999 -999 -999  
2001-06-14 09:55:32 51°23.883 3°42.453 -999 -999 -999  
2001-06-14 09:55:37 51°23.869 3°42.45 -999 -999 -999  
2001-06-14 09:55:42 51°23.855 3°42.448 -999 -999 -999  
2001-06-14 09:55:46 51°23.844 3°42.446 -999 -999 -999  
2001-06-14 09:55:52 51°23.827 3°42.443 -999 -999 -999  
2001-06-14 09:55:56 51°23.815 3°42.442 -999 -999 -999  
2001-06-14 09:56:02 51°23.799 3°42.438 -999 -999 -999  
2001-06-14 09:56:07 51°23.786 3°42.434 -999 -999 -999  
2001-06-14 09:56:12 51°23.772 3°42.433 -999 -999 -999  
2001-06-14 09:56:16 51°23.761 3°42.432 -999 -999 -999  
2001-06-14 09:56:22 51°23.744 3°42.429 -999 -999 -999  
2001-06-14 09:56:27 51°23.729 3°42.427 -999 -999 -999  
2001-06-14 09:56:32 51°23.715 3°42.425 -999 -999 -999  
2001-06-14 09:56:37 51°23.701 3°42.424 -999 -999 -999  
2001-06-14 09:56:42 51°23.687 3°42.423 -999 -999 -999  
2001-06-14 09:56:47 51°23.673 3°42.423 -999 -999 -999  
2001-06-14 09:56:52 51°23.658 3°42.423 -999 -999 -999  
2001-06-14 09:56:56 51°23.647 3°42.423 -999 -999 -999  
2001-06-14 09:57:02 51°23.63 3°42.424 -999 -999 -999  
2001-06-14 09:57:06 51°23.619 3°42.424 -999 -999 -999  
2001-06-14 09:57:12 51°23.603 3°42.425 -999 -999 -999  
2001-06-14 09:57:17 51°23.589 3°42.425 -999 -999 -999  
2001-06-14 09:57:22 51°23.574 3°42.426 -999 -999 -999  
2001-06-14 09:57:26 51°23.563 3°42.428 -999 -999 -999  
2001-06-14 09:57:32 51°23.546 3°42.43 -999 -999 -999  
2001-06-14 09:57:37 51°23.532 3°42.432 -999 -999 -999  
2001-06-14 09:57:42 51°23.518 3°42.434 -999 -999 -999  
2001-06-14 09:57:47 51°23.504 3°42.437 -999 -999 -999  
2001-06-14 09:57:52 51°23.49 3°42.438 -999 -999 -999  
2001-06-14 09:57:57 51°23.476 3°42.44 -999 -999 -999  
2001-06-14 09:58:02 51°23.462 3°42.441 -999 -999 -999  
2001-06-14 09:58:07 51°23.448 3°42.443 -999 -999 -999  
2001-06-14 09:58:12 51°23.434 3°42.444 -999 -999 -999  
2001-06-14 09:58:16 51°23.423 3°42.445 -999 -999 -999  
2001-06-14 09:58:22 51°23.405 3°42.446 -999 -999 -999  
2001-06-14 09:58:27 51°23.391 3°42.447 -999 -999 -999  
2001-06-14 09:58:32 51°23.377 3°42.449 -999 -999 -999  
2001-06-14 09:58:36 51°23.366 3°42.452 -999 -999 -999  
2001-06-14 09:58:42 51°23.35 3°42.457 -999 -999 -999  
2001-06-14 09:58:46 51°23.339 3°42.461 -999 -999 -999  
2001-06-14 09:58:52 51°23.322 3°42.467 -999 -999 -999  
2001-06-14 09:58:57 51°23.309 3°42.473 -999 -999 -999  
2001-06-14 09:59:02 51°23.295 3°42.48 -999 -999 -999  
2001-06-14 09:59:07 51°23.282 3°42.486 -999 -999 -999  
2001-06-14 09:59:12 51°23.268 3°42.493 -999 -999 -999  
2001-06-14 09:59:17 51°23.255 3°42.501 -999 -999 -999  
2001-06-14 09:59:22 51°23.242 3°42.509 -999 -999 -999  
2001-06-14 09:59:27 51°23.229 3°42.518 -999 -999 -999  
2001-06-14 09:59:32 51°23.217 3°42.527 -999 -999 -999  
2001-06-14 09:59:36 51°23.207 3°42.535 -999 -999 -999  
2001-06-14 09:59:42 51°23.191 3°42.546 -999 -999 -999  
2001-06-14 09:59:46 51°23.182 3°42.554 -999 -999 -999  
2001-06-14 09:59:51 51°23.169 3°42.565 -999 -999 -999  
2001-06-14 09:59:56 51°23.157 3°42.577 -999 -999 -999  
2001-06-14 10:00:02 51°23.143 3°42.591 -999 -999 -999  
2001-06-14 10:00:07 51°23.133 3°42.604 -999 -999 -999  
2001-06-14 10:00:12 51°23.122 3°42.618 -999 -999 -999  
2001-06-14 10:00:17 51°23.111 3°42.631 -999 -999 -999  
2001-06-14 10:00:22 51°23.1 3°42.645 -999 -999 -999  
2001-06-14 10:00:27 51°23.089 3°42.658 -999 -999 -999  
2001-06-14 10:00:32 51°23.078 3°42.672 -999 -999 -999  
2001-06-14 10:00:37 51°23.068 3°42.686 -999 -999 -999  
2001-06-14 10:00:42 51°23.057 3°42.699 -999 -999 -999  
2001-06-14 10:00:47 51°23.047 3°42.713 -999 -999 -999  
2001-06-14 10:00:52 51°23.037 3°42.727 -999 -999 -999  
2001-06-14 10:00:56 51°23.028 3°42.738 -999 -999 -999  
2001-06-14 10:01:02 51°23.016 3°42.755 -999 -999 -999  
2001-06-14 10:01:06 51°23.008 3°42.767 -999 -999 -999  
2001-06-14 10:01:12 51°22.996 3°42.784 -999 -999 -999  
2001-06-14 10:01:17 51°22.985 3°42.798 -999 -999 -999  
2001-06-14 10:01:22 51°22.976 3°42.813 -999 -999 -999  
2001-06-14 10:01:27 51°22.966 3°42.828 -999 -999 -999  
2001-06-14 10:01:32 51°22.955 3°42.842 -999 -999 -999  
2001-06-14 10:01:36 51°22.947 3°42.854 -999 -999 -999  
2001-06-14 10:01:42 51°22.935 3°42.871 -999 -999 -999  
2001-06-14 10:01:47 51°22.925 3°42.886 -999 -999 -999  
2001-06-14 10:01:52 51°22.914 3°42.9 -999 -999 -999  
2001-06-14 10:01:57 51°22.904 3°42.915 -999 -999 -999  
2001-06-14 10:02:02 51°22.894 3°42.93 -999 -999 -999  
2001-06-14 10:02:07 51°22.884 3°42.945 -999 -999 -999  
2001-06-14 10:02:12 51°22.874 3°42.96 -999 -999 -999  
2001-06-14 10:02:17 51°22.864 3°42.975 -999 -999 -999  
2001-06-14 10:02:22 51°22.854 3°42.99 -999 -999 -999  
2001-06-14 10:02:26 51°22.846 3°43.002 -999 -999 -999  
2001-06-14 10:02:32 51°22.834 3°43.019 -999 -999 -999  
2001-06-14 10:02:37 51°22.824 3°43.034 -999 -999 -999  
2001-06-14 10:02:41 51°22.816 3°43.047 -999 -999 -999  
2001-06-14 10:02:46 51°22.806 3°43.062 -999 -999 -999  
2001-06-14 10:02:52 51°22.795 3°43.079 -999 -999 -999  
2001-06-14 10:02:57 51°22.785 3°43.094 -999 -999 -999  
2001-06-14 10:03:02 51°22.775 3°43.109 -999 -999 -999  
2001-06-14 10:03:07 51°22.765 3°43.125 -999 -999 -999  
2001-06-14 10:03:12 51°22.756 3°43.14 -999 -999 -999  
2001-06-14 10:03:16 51°22.748 3°43.153 -999 -999 -999  
2001-06-14 10:03:22 51°22.737 3°43.171 -999 -999 -999  
2001-06-14 10:03:27 51°22.727 3°43.186 -999 -999 -999  
2001-06-14 10:03:32 51°22.718 3°43.202 -999 -999 -999  
2001-06-14 10:03:37 51°22.708 3°43.217 -999 -999 -999  
2001-06-14 10:03:42 51°22.699 3°43.233 -999 -999 -999  
2001-06-14 10:03:47 51°22.689 3°43.248 -999 -999 -999  
2001-06-14 10:03:52 51°22.679 3°43.263 -999 -999 -999  
2001-06-14 10:03:56 51°22.672 3°43.275 -999 -999 -999  
2001-06-14 10:04:02 51°22.66 3°43.293 -999 -999 -999  
2001-06-14 10:04:07 51°22.65 3°43.308 -999 -999 -999  
2001-06-14 10:04:12 51°22.64 3°43.323 -999 -999 -999  
2001-06-14 10:04:17 51°22.63 3°43.338 -999 -999 -999  
2001-06-14 10:04:22 51°22.62 3°43.353 -999 -999 -999  
2001-06-14 10:04:26 51°22.612 3°43.364 -999 -999 -999  
2001-06-14 10:04:32 51°22.601 3°43.382 -999 -999 -999  
2001-06-14 10:04:37 51°22.591 3°43.397 -999 -999 -999  
2001-06-14 10:04:42 51°22.581 3°43.412 -999 -999 -999  
2001-06-14 10:04:47 51°22.572 3°43.428 -999 -999 -999  
2001-06-14 10:04:52 51°22.562 3°43.442 -999 -999 -999  
2001-06-14 10:04:57 51°22.552 3°43.457 -999 -999 -999  
2001-06-14 10:05:02 51°22.543 3°43.473 -999 -999 -999  
2001-06-14 10:05:07 51°22.533 3°43.488 -999 -999 -999  
2001-06-14 10:05:12 51°22.524 3°43.503 -999 -999 -999  
2001-06-14 10:05:16 51°22.516 3°43.515 -999 -999 -999  
2001-06-14 10:05:22 51°22.505 3°43.533 -999 -999 -999  
2001-06-14 10:05:27 51°22.495 3°43.548 -999 -999 -999  
2001-06-14 10:05:32 51°22.485 3°43.563 -999 -999 -999  
2001-06-14 10:05:36 51°22.478 3°43.575 -999 -999 -999  
2001-06-14 10:05:42 51°22.466 3°43.593 -999 -999 -999  
2001-06-14 10:05:47 51°22.457 3°43.609 -999 -999 -999  
2001-06-14 10:05:52 51°22.448 3°43.624 -999 -999 -999  
2001-06-14 10:05:57 51°22.439 3°43.64 -999 -999 -999  
2001-06-14 10:06:02 51°22.43 3°43.655 -999 -999 -999  
2001-06-14 10:06:07 51°22.42 3°43.67 -999 -999 -999  
2001-06-14 10:06:12 51°22.411 3°43.685 -999 -999 -999  
2001-06-14 10:06:17 51°22.402 3°43.701 -999 -999 -999  
2001-06-14 10:06:22 51°22.392 3°43.716 -999 -999 -999  
2001-06-14 10:06:27 51°22.383 3°43.731 -999 -999 -999  
2001-06-14 10:06:32 51°22.374 3°43.746 -999 -999 -999  
2001-06-14 10:06:37 51°22.364 3°43.761 -999 -999 -999  
2001-06-14 10:06:42 51°22.355 3°43.777 -999 -999 -999  
2001-06-14 10:06:46 51°22.347 3°43.789 -999 -999 -999  
2001-06-14 10:06:51 51°22.338 3°43.804 -999 -999 -999  
2001-06-14 10:06:56 51°22.329 3°43.819 -999 -999 -999  
2001-06-14 10:07:02 51°22.317 3°43.838 -999 -999 -999  
2001-06-14 10:07:07 51°22.308 3°43.852 -999 -999 -999  
2001-06-14 10:07:12 51°22.298 3°43.867 -999 -999 -999  
2001-06-14 10:07:16 51°22.291 3°43.879 -999 -999 -999  
2001-06-14 10:07:22 51°22.279 3°43.897 -999 -999 -999  
2001-06-14 10:07:27 51°22.27 3°43.912 -999 -999 -999  
2001-06-14 10:07:32 51°22.261 3°43.927 -999 -999 -999  
2001-06-14 10:07:37 51°22.252 3°43.943 -999 -999 -999  
2001-06-14 10:07:42 51°22.242 3°43.958 -999 -999 -999  
2001-06-14 10:07:47 51°22.233 3°43.973 -999 -999 -999  
2001-06-14 10:07:52 51°22.224 3°43.989 -999 -999 -999  
2001-06-14 10:07:57 51°22.215 3°44.004 -999 -999 -999  
2001-06-14 10:08:02 51°22.205 3°44.019 -999 -999 -999  
2001-06-14 10:08:06 51°22.198 3°44.031 -999 -999 -999  
2001-06-14 10:08:12 51°22.186 3°44.048 -999 -999 -999  
2001-06-14 10:08:17 51°22.177 3°44.063 -999 -999 -999  
2001-06-14 10:08:22 51°22.167 3°44.078 -999 -999 -999  
2001-06-14 10:08:26 51°22.159 3°44.09 -999 -999 -999  
2001-06-14 10:08:32 51°22.148 3°44.107 -999 -999 -999  
2001-06-14 10:08:36 51°22.14 3°44.12 -999 -999 -999  
2001-06-14 10:08:42 51°22.13 3°44.139 -999 -999 -999  
2001-06-14 10:08:47 51°22.121 3°44.154 -999 -999 -999  
2001-06-14 10:08:52 51°22.112 3°44.171 -999 -999 -999  
2001-06-14 10:08:57 51°22.104 3°44.187 -999 -999 -999  
2001-06-14 10:09:02 51°22.095 3°44.203 -999 -999 -999  
2001-06-14 10:09:07 51°22.087 3°44.22 -999 -999 -999  
2001-06-14 10:09:12 51°22.079 3°44.236 -999 -999 -999  
2001-06-14 10:09:17 51°22.07 3°44.252 -999 -999 -999  
2001-06-14 10:09:22 51°22.061 3°44.268 -999 -999 -999  
2001-06-14 10:09:27 51°22.053 3°44.284 -999 -999 -999  
2001-06-14 10:09:32 51°22.044 3°44.3 -999 -999 -999  
2001-06-14 10:09:36 51°22.037 3°44.313 -999 -999 -999  
2001-06-14 10:09:41 51°22.028 3°44.328 -999 -999 -999  
2001-06-14 10:09:46 51°22.019 3°44.344 -999 -999 -999  
2001-06-14 10:09:52 51°22.007 3°44.362 -999 -999 -999  
2001-06-14 10:09:57 51°21.998 3°44.377 -999 -999 -999  
2001-06-14 10:10:02 51°21.988 3°44.392 -999 -999 -999  
2001-06-14 10:10:07 51°21.978 3°44.408 -999 -999 -999  
2001-06-14 10:10:12 51°21.969 3°44.423 -999 -999 -999  
2001-06-14 10:10:17 51°21.961 3°44.439 -999 -999 -999  
2001-06-14 10:10:22 51°21.952 3°44.455 -999 -999 -999  
2001-06-14 10:10:27 51°21.943 3°44.471 -999 -999 -999  
2001-06-14 10:10:32 51°21.934 3°44.486 -999 -999 -999  
2001-06-14 10:10:37 51°21.925 3°44.502 -999 -999 -999  
2001-06-14 10:10:42 51°21.916 3°44.517 -999 -999 -999  
2001-06-14 10:10:47 51°21.907 3°44.533 -999 -999 -999  
2001-06-14 10:10:52 51°21.898 3°44.549 -999 -999 -999  
2001-06-14 10:10:56 51°21.891 3°44.562 -999 -999 -999  
2001-06-14 10:11:02 51°21.88 3°44.581 -999 -999 -999  
2001-06-14 10:11:07 51°21.871 3°44.597 -999 -999 -999  
2001-06-14 10:11:12 51°21.862 3°44.613 -999 -999 -999  
2001-06-14 10:11:17 51°21.853 3°44.628 -999 -999 -999  
2001-06-14 10:11:21 51°21.846 3°44.641 -999 -999 -999  
2001-06-14 10:11:26 51°21.836 3°44.657 -999 -999 -999  
2001-06-14 10:11:32 51°21.825 3°44.675 -999 -999 -999  
2001-06-14 10:11:37 51°21.816 3°44.691 -999 -999 -999  
2001-06-14 10:11:42 51°21.807 3°44.707 -999 -999 -999  
2001-06-14 10:11:47 51°21.798 3°44.723 -999 -999 -999  
2001-06-14 10:11:52 51°21.79 3°44.739 -999 -999 -999  
2001-06-14 10:11:57 51°21.781 3°44.755 -999 -999 -999  
2001-06-14 10:12:02 51°21.772 3°44.771 -999 -999 -999  
2001-06-14 10:12:07 51°21.763 3°44.787 -999 -999 -999  
2001-06-14 10:12:12 51°21.754 3°44.804 -999 -999 -999  
2001-06-14 10:12:16 51°21.748 3°44.817 -999 -999 -999  
2001-06-14 10:12:22 51°21.737 3°44.837 -999 -999 -999  
2001-06-14 10:12:27 51°21.729 3°44.853 -999 -999 -999  
2001-06-14 10:12:32 51°21.72 3°44.87 -999 -999 -999  
2001-06-14 10:12:36 51°21.714 3°44.883 -999 -999 -999  
2001-06-14 10:12:42 51°21.703 3°44.903 -999 -999 -999  
2001-06-14 10:12:47 51°21.695 3°44.92 -999 -999 -999  
2001-06-14 10:12:52 51°21.686 3°44.937 -999 -999 -999  
2001-06-14 10:12:57 51°21.678 3°44.953 -999 -999 -999  
2001-06-14 10:13:02 51°21.669 3°44.97 -999 -999 -999  
2001-06-14 10:13:07 51°21.661 3°44.987 -999 -999 -999  
2001-06-14 10:13:12 51°21.654 3°45.005 -999 -999 -999  
2001-06-14 10:13:17 51°21.646 3°45.023 -999 -999 -999  
2001-06-14 10:13:22 51°21.639 3°45.04 -999 -999 -999  
2001-06-14 10:13:27 51°21.632 3°45.058 -999 -999 -999  
2001-06-14 10:13:32 51°21.624 3°45.076 -999 -999 -999  
2001-06-14 10:13:37 51°21.617 3°45.093 -999 -999 -999  
2001-06-14 10:13:42 51°21.609 3°45.111 -999 -999 -999  
2001-06-14 10:13:46 51°21.603 3°45.125 -999 -999 -999  
2001-06-14 10:13:52 51°21.594 3°45.146 -999 -999 -999  
2001-06-14 10:13:57 51°21.587 3°45.164 -999 -999 -999  
2001-06-14 10:14:02 51°21.579 3°45.181 -999 -999 -999  
2001-06-14 10:14:07 51°21.571 3°45.199 -999 -999 -999  
2001-06-14 10:14:12 51°21.564 3°45.216 -999 -999 -999  
2001-06-14 10:14:16 51°21.558 3°45.23 -999 -999 -999  
2001-06-14 10:14:22 51°21.549 3°45.252 -999 -999 -999  
2001-06-14 10:14:27 51°21.541 3°45.269 -999 -999 -999  
2001-06-14 10:14:32 51°21.534 3°45.287 -999 -999 -999  
2001-06-14 10:14:37 51°21.526 3°45.305 -999 -999 -999  
2001-06-14 10:14:42 51°21.519 3°45.323 -999 -999 -999  
2001-06-14 10:14:47 51°21.511 3°45.34 -999 -999 -999  
2001-06-14 10:14:52 51°21.503 3°45.358 -999 -999 -999  
2001-06-14 10:14:56 51°21.497 3°45.372 -999 -999 -999  
2001-06-14 10:15:02 51°21.488 3°45.394 -999 -999 -999  
2001-06-14 10:15:06 51°21.482 3°45.408 -999 -999 -999  
2001-06-14 10:15:12 51°21.473 3°45.43 -999 -999 -999  
2001-06-14 10:15:17 51°21.466 3°45.448 -999 -999 -999  
2001-06-14 10:15:22 51°21.459 3°45.466 -999 -999 -999  
2001-06-14 10:15:26 51°21.453 3°45.481 -999 -999 -999  
2001-06-14 10:15:32 51°21.446 3°45.504 -999 -999 -999  
2001-06-14 10:15:37 51°21.44 3°45.523 -999 -999 -999  
2001-06-14 10:15:42 51°21.434 3°45.542 -999 -999 -999  
2001-06-14 10:15:47 51°21.428 3°45.561 -999 -999 -999  
2001-06-14 10:15:52 51°21.422 3°45.581 -999 -999 -999  
2001-06-14 10:15:57 51°21.417 3°45.6 -999 -999 -999  
2001-06-14 10:16:02 51°21.412 3°45.62 -999 -999 -999  
2001-06-14 10:16:07 51°21.407 3°45.64 -999 -999 -999  
2001-06-14 10:16:12 51°21.403 3°45.66 -999 -999 -999  
2001-06-14 10:16:17 51°21.399 3°45.68 -999 -999 -999  
2001-06-14 10:16:22 51°21.394 3°45.7 -999 -999 -999  
2001-06-14 10:16:27 51°21.389 3°45.72 -999 -999 -999  
2001-06-14 10:16:32 51°21.385 3°45.74 -999 -999 -999  
2001-06-14 10:16:37 51°21.38 3°45.76 -999 -999 -999  
2001-06-14 10:16:42 51°21.376 3°45.78 -999 -999 -999  
2001-06-14 10:16:46 51°21.372 3°45.796 -999 -999 -999  
2001-06-14 10:16:52 51°21.367 3°45.821 -999 -999 -999  
2001-06-14 10:16:57 51°21.363 3°45.841 -999 -999 -999  
2001-06-14 10:17:02 51°21.359 3°45.861 -999 -999 -999  
2001-06-14 10:17:07 51°21.355 3°45.882 -999 -999 -999  
2001-06-14 10:17:12 51°21.35 3°45.902 -999 -999 -999  
2001-06-14 10:17:17 51°21.346 3°45.923 -999 -999 -999  
2001-06-14 10:17:22 51°21.342 3°45.944 -999 -999 -999  
2001-06-14 10:17:27 51°21.338 3°45.964 -999 -999 -999  
2001-06-14 10:17:32 51°21.335 3°45.985 -999 -999 -999  
2001-06-14 10:17:37 51°21.332 3°46.006 -999 -999 -999  
2001-06-14 10:17:42 51°21.329 3°46.027 -999 -999 -999  
2001-06-14 10:17:46 51°21.327 3°46.043 -999 -999 -999  
2001-06-14 10:17:52 51°21.324 3°46.068 -999 -999 -999  
2001-06-14 10:17:56 51°21.322 3°46.085 -999 -999 -999  
2001-06-14 10:18:02 51°21.319 3°46.11 -999 -999 -999  
2001-06-14 10:18:07 51°21.316 3°46.131 -999 -999 -999  
2001-06-14 10:18:12 51°21.314 3°46.152 -999 -999 -999  
2001-06-14 10:18:17 51°21.311 3°46.173 -999 -999 -999